Morgantown, WV

9:43 PM EDT on March 29, 2017 (GMT -0400)
Morgantown Municipal-Hart

Weather History for KMGW - January, 2004

Change the Weather History Date:

Monday, January 5, 2004

  Actual Average Record
Temperature  
Mean Temperature 40 °F 31 °F  
Max Temperature 51 °F 39 °F 69 °F (1998)
Min Temperature 30 °F 24 °F -4 °F (1968)
Degree Days  
Heating Degree Days 24 34  
Month to date heating degree days 167  
Since 1 July heating degree days 2151  
Cooling Degree Days 0 0  
Month to date cooling degree days 0  
Year to date cooling degree days 0  
Moisture  
Dew Point 39 °F    
Average Humidity 92    
Maximum Humidity 100    
Minimum Humidity 79    
Precipitation  
Precipitation 0.58 in 0.09 in 1.44 in (2005)
Month to date precipitation 0.45  
Year to date precipitation 0.45  
Sea Level Pressure  
Sea Level Pressure 29.87 in    
Wind  
Wind Speed 5 mph (SW)    
Max Wind Speed 12 mph    
Max Gust Speed 20 mph    
Visibility 6 miles    
Events Rain , Snow    
T = Trace of Precipitation, MM = Missing Value Source: NWS Daily Summary

Daily Weather History Graph

Daily Weather History Graph

Search for Another Location

Airport or City:

Trip Planner

Search our weather history database for the weather conditions in past years. The results will help you decide how hot, cold, wet, or windy it might be!

Date:

Astronomy

Jan. 05, 2004 Rise Set
Actual Time 7:40 AM EST 5:09 PM EST
Civil Twilight 7:10 AM EST 5:39 PM EST
Nautical Twilight 6:37 AM EST 6:13 PM EST
Astronomical Twilight 6:04 AM EST 6:45 PM EST
Moon 3:21 PM EST (1/5) 6:12 AM EST (1/5)
Length of Visible Light 10h 28m
Length of Day
9h 28m
Waxing Gibbous, 97% of the Moon is Illuminated
Jan 5
Waxing Gibbous
Jan 7
Full
Jan 14
Last Quarter
Jan 21
New
Jan 29
First Quarter

Hourly Weather History & Observations

Time (EST) Temp. Windchill Dew Point Humidity Pressure Visibility Wind Dir Wind Speed Gust Speed Precip Events Conditions
12:27 AM 41.0 °F - 41.0 °F 100% 29.75 in 5.0 mi Calm Calm - 0.00 in Rain Light Rain
12:45 AM 42.8 °F - 41.0 °F 93% 29.75 in 3.0 mi Calm Calm - 0.04 in Rain Rain
12:53 AM 42.1 °F 40.2 °F 41.0 °F 96% 29.77 in 2.0 mi Variable 3.5 mph - 0.08 in Rain Heavy Rain
1:12 AM 42.8 °F 38.6 °F 42.8 °F 100% 29.74 in 3.0 mi South 6.9 mph - 0.05 in Rain Light Rain
1:19 AM 42.8 °F 39.3 °F 42.8 °F 100% 29.73 in 2.0 mi South 5.8 mph - 0.05 in Rain Light Rain
1:32 AM 42.8 °F 40.1 °F 42.8 °F 100% 29.73 in 1.5 mi South 4.6 mph - 0.06 in Rain Light Rain
1:42 AM 42.8 °F 41.1 °F 42.8 °F 100% 29.72 in 2.0 mi South 3.5 mph - 0.06 in Rain Light Rain
1:53 AM 43.0 °F 40.3 °F 43.0 °F 100% 29.73 in 3.0 mi ESE 4.6 mph - 0.06 in   Overcast
2:13 AM 44.6 °F 43.1 °F 44.6 °F 100% 29.73 in 1.8 mi NW 3.5 mph - 0.00 in Rain Light Rain
2:24 AM 44.6 °F 42.2 °F 44.6 °F 100% 29.75 in 2.5 mi WNW 4.6 mph - 0.01 in Rain Rain
2:34 AM 44.6 °F - 44.6 °F 100% 29.76 in 1.2 mi Calm Calm - 0.04 in Rain Rain
2:43 AM 44.6 °F - 44.6 °F 100% 29.77 in 1.8 mi Calm Calm - 0.07 in Rain Rain
2:53 AM 44.1 °F 40.1 °F 44.1 °F 100% 29.79 in 2.0 mi South 6.9 mph - 0.09 in Rain Light Rain
3:03 AM 44.6 °F 41.4 °F 44.6 °F 100% 29.76 in 1.0 mi South 5.8 mph - 0.02 in Rain Rain
3:11 AM 44.6 °F 41.4 °F 44.6 °F 100% 29.75 in 0.8 mi South 5.8 mph - 0.03 in Rain Light Rain
3:19 AM 46.4 °F 44.3 °F 44.6 °F 93% 29.76 in 2.0 mi Variable 4.6 mph - 0.03 in Rain Light Rain
3:27 AM 46.4 °F 45.2 °F 44.6 °F 93% 29.76 in 4.0 mi Variable 3.5 mph - 0.03 in Rain Light Rain
3:53 AM 46.0 °F 43.1 °F 46.0 °F 100% 29.75 in 2.0 mi South 5.8 mph - 0.04 in Rain Light Rain
4:01 AM 44.6 °F 42.2 °F 44.6 °F 100% 29.73 in 1.2 mi South 4.6 mph - 0.00 in Rain Light Rain
4:18 AM 46.4 °F 42.9 °F 46.4 °F 100% 29.73 in 0.8 mi South 6.9 mph - 0.01 in Rain Light Rain
4:26 AM 46.4 °F 43.5 °F 46.4 °F 100% 29.75 in 1.5 mi South 5.8 mph - 0.03 in Rain Rain
4:53 AM 46.9 °F - 46.9 °F 100% 29.73 in 3.0 mi South 6.9 mph - 0.10 in Rain Rain
5:13 AM 50.0 °F - 50.0 °F 100% 29.74 in 8.0 mi SSW 10.4 mph - 0.01 in Rain Light Rain
5:26 AM 50.0 °F - 50.0 °F 100% 29.74 in 7.0 mi SSW 5.8 mph - 0.02 in Rain Light Rain
5:53 AM 51.1 °F - 50.0 °F 96% 29.76 in 6.0 mi SSW 9.2 mph - 0.03 in Rain Light Rain
6:38 AM 51.8 °F - 50.0 °F 94% 29.75 in 5.0 mi SSW 9.2 mph - 0.10 in Rain Rain
6:42 AM 51.8 °F - 50.0 °F 94% 29.75 in 6.0 mi Variable 6.9 mph - 0.10 in Rain Rain
6:53 AM 51.1 °F - 48.9 °F 92% 29.77 in 8.0 mi SW 8.1 mph - 0.11 in Rain Light Rain
7:53 AM 50.0 °F - 48.0 °F 93% 29.81 in 7.0 mi SW 8.1 mph - 0.02 in Rain Light Rain
8:53 AM 50.0 °F - 48.0 °F 93% 29.83 in 10.0 mi SW 11.5 mph - 0.04 in Rain Light Rain
9:05 AM 50.0 °F - 48.2 °F 94% 29.82 in 10.0 mi SW 8.1 mph - 0.00 in   Mostly Cloudy
9:53 AM 46.9 °F - 44.1 °F 90% 29.87 in 10.0 mi NW 11.5 mph 18.4 mph 0.00 in   Overcast
10:00 AM 46.4 °F 41.1 °F 44.6 °F 93% 29.85 in 10.0 mi WNW 11.5 mph - N/A   Overcast
10:53 AM 43.0 °F 36.8 °F 39.9 °F 89% 29.90 in 10.0 mi West 11.5 mph - N/A   Overcast
11:03 AM 44.6 °F 43.1 °F 39.2 °F 81% 29.89 in 10.0 mi Variable 3.5 mph - N/A   Overcast
11:53 AM 43.0 °F 37.7 °F 37.0 °F 80% 29.89 in 10.0 mi West 9.2 mph - N/A   Overcast
12:53 PM 41.0 °F 35.8 °F 37.0 °F 86% 29.88 in 10.0 mi WNW 8.1 mph - N/A   Overcast
1:00 PM 41.0 °F 35.8 °F 35.6 °F 81% 29.86 in 10.0 mi West 8.1 mph - N/A   Overcast
1:53 PM 39.9 °F 36.7 °F 36.0 °F 86% 29.90 in 10.0 mi WNW 4.6 mph - N/A   Overcast
2:53 PM 37.9 °F 30.9 °F 33.1 °F 83% 29.94 in 10.0 mi WNW 10.4 mph 17.3 mph N/A   Overcast
3:53 PM 36.0 °F 29.6 °F 33.1 °F 89% 29.98 in 10.0 mi NW 8.1 mph 16.1 mph 0.00 in Rain Light Rain
4:53 PM 35.1 °F 27.4 °F 30.9 °F 85% 30.01 in 5.0 mi WNW 10.4 mph 19.6 mph 0.00 in   Overcast
5:23 PM 33.8 °F 28.6 °F 32.0 °F 93% 30.00 in 5.0 mi Variable 5.8 mph - N/A   Overcast
5:37 PM 33.8 °F 27.7 °F 30.2 °F 87% 30.02 in 5.0 mi Variable 6.9 mph - 0.00 in Rain Light Rain
5:53 PM 33.1 °F 26.9 °F 30.0 °F 89% 30.05 in 5.0 mi Variable 6.9 mph - 0.00 in Rain , Snow Light Rain
6:30 PM 33.8 °F 28.6 °F 30.2 °F 87% 30.04 in 8.0 mi Variable 5.8 mph - 0.00 in Snow Light Snow
6:53 PM 33.1 °F 28.7 °F 30.0 °F 89% 30.07 in 8.0 mi Variable 4.6 mph - 0.00 in Snow Light Snow
7:02 PM 33.8 °F 29.6 °F 30.2 °F 87% 30.05 in 7.0 mi Variable 4.6 mph - 0.00 in Snow Light Snow
7:53 PM 32.0 °F 28.7 °F 28.9 °F 88% 30.09 in 9.0 mi Variable 3.5 mph - 0.00 in Snow Light Snow
8:03 PM 32.0 °F 28.7 °F 28.4 °F 87% 30.07 in 9.0 mi Variable 3.5 mph - 0.00 in Snow Light Snow
8:53 PM 32.0 °F 27.5 °F 27.0 °F 82% 30.11 in 9.0 mi NW 4.6 mph - 0.00 in Snow Light Snow
9:53 PM 30.9 °F 27.5 °F 28.0 °F 89% 30.12 in 9.0 mi Variable 3.5 mph - 0.01 in Snow Light Snow
10:14 PM 32.0 °F 27.5 °F 26.6 °F 80% 30.10 in 9.0 mi Variable 4.6 mph - 0.00 in Snow Light Snow
10:44 PM 32.0 °F 26.4 °F 26.6 °F 80% 30.10 in 9.0 mi Variable 5.8 mph - 0.00 in Snow Light Snow
10:53 PM 32.0 °F 24.8 °F 27.0 °F 82% 30.12 in 9.0 mi West 8.1 mph - 0.00 in Snow Light Snow
11:06 PM 32.0 °F 24.2 °F 26.6 °F 80% 30.10 in 10.0 mi WNW 9.2 mph - 0.00 in   Overcast
11:38 PM 30.2 °F 22.6 °F 26.6 °F 86% 30.10 in 10.0 mi WNW 8.1 mph - 0.00 in   Overcast
11:53 PM 30.9 °F 24.3 °F 25.0 °F 79% 30.14 in 10.0 mi Variable 6.9 mph - 0.00 in   Overcast